星链-4705 (STARLINK-4705 )

导读

STARLINK-4705是美国SpaceX公司星链星座中的一颗低轨通信卫星,于2022年9月5日发射入轨。星链计划旨在构建全球覆盖的低轨卫星互联网,为全球提供高速低延迟宽带服务。该卫星采用平板设计,搭载Ku/Ka波段通信载荷与氪霍尔推进器,具备自主避撞能力,寿命末期将主动离轨再入大气层烧毁,属于星链第一代组网卫星,助力完善全球卫星互联网覆盖。

Basic Information
目录编号:
53723
目录名称:
STARLINK-4705
国际标识:
2022-107Z
轨道中心:
EARTH
卫星名称:
星链-4705
卫星全名:
星链-4705 (STARLINK-4705 )
卫星状态:
在轨 (已飞行1460 天)
发射日期:
2022-09-05 UTC
国别 :
美国 (US)
星等 :
--
Orbit Information
数据来源 国际轨道数据
星历时间: 2026-09-04T12:04:42+0800
5小时前
查看轨道信息
半长轴: 6837.881km
偏心率: 0.0001071
轨道倾角: 53.160°
近地点辐角 90.363°
升交点赤经 162.118°
平近点角 269.749°
近地点: 459.011km
远地点: 460.477km
周期: 93.787分钟
每日圈数: 15.353962
Detailed Information
固有亮度:
5
最大亮度:
2.5
卫星平台:
Starlink v1.5
覆盖范围:
全球
运营商:
太空探索技术公司
运营商所在国:
美国
制造商(研发单位):
太空探索技术公司
制造商所在国:
美国
使用方式:
暂无
Satellite Introduction
星链(Starlink)计划是由太空探索技术公司(SpaceX)提出的一个巨型低轨卫星互联网星座项目,计划在2019年至2024年间在太空搭建由约1.2万颗卫星组成的“星链”网络,其中1584颗将部署在地球上空550千米处的近地轨道,并从2020年开始工作。该卫星仍在工作。
2D Orbit Map
3D Orbit Map
Orbit Altitude Analysis Chart
Orbit Inclination Analysis Chart
Orbit Comprehensive Analysis Chart
View Comprehensive Chart
Conjunction Data List
Event ID Objects TCA Miss Dist (km) Collision Risk Probability Collision Risk Index (CRI) Action
CDM_260904-173605-348105-372321
2026-09-04T
17:36:00+0000
2.637 km
极远距离
1.563623E-6 低风险 0.39
CDM_260905-054205-372306-804521
2026-09-05T
05:42:04+0000
2.649 km
极远距离
1.356676E-6 低风险 0.38
CDM_260903-070305-372306-427921
2026-09-03T
07:03:32+0000
2.967 km
极远距离
1.206193E-6 低风险 0.37
CDM_260827-190305-372306-534421
2026-08-27T
19:03:43+0000
2.879 km
极远距离
8.960489E-7 极低风险 0.34
CDM_260905-114505-372306-060221
2026-09-05T
11:45:19+0000
2.780 km
极远距离
6.518133E-7 极低风险 0.31
CDM_260905-162405-372305-373821
2026-09-05T
16:24:36+0000
2.856 km
极远距离
3.538084E-7 极低风险 0.26